Weather in Tralee

Ireland     52°16′05″N   9°42′01″W
temp.,
°C
wind,
m/s
gust,
m/s
humid.,
%
clouds,
%
prec.,
mm/h
press.,
hPa
HPBL,
m
20 january, wed
wed2000:00+10sw4119699 1.3 986687
03:00+7n2496100 3.6 984239
06:00+6nnw5793100 4.1 983496
09:00+5n2685100 0.3 982682
12:00+6n3678100 0.3 982999
15:00+6nnw367612 0.0 9811064
18:00+5nnw5108313 0.8 982482
21:00+5nw813781 1.0 983856
21 january, thu
thu2100:00+5wnw8147626 1.6 984908
03:00+5wnw8147236 0.9 984811
06:00+5wnw7127442 1.9 984650
09:00+5wnw5107912 0.6 984488
12:00+7nw478037 2.0 986801
15:00+6n238297 1.7 986336
18:00+4n128398 1.9 988141
21:00+3n0183100 0.0 989147
22 january, fri
fri2200:00+3wsw1282100 0.1 989127
03:00+3w118593 0.8 99086
06:00+3nw128396 1.2 991145
09:00+3nw2282100 0.1 992152
12:00+5wnw467997 0.8 994954
15:00+5wnw58765 1.0 993861
18:00+3wnw5107911 2.2 995445
21:00+3nnw2386100 1.4 995191
23 january, sat
sat2300:00+2wsw1296100 2.1 997143
03:00+1sw1290100 0.6 99789
06:00+1wsw228182 0.6 998136
09:000s228672 0.0 99789
12:00+3s248186 0.3 997301
15:00+4wnw81171100 1.4 995942
18:00+3wnw8136896 2.2 996731
21:00+2wnw7127099 0.9 997601
24 january, sun
sun2400:00+3wnw7137196 2.2 998663
03:00+3wnw7137081 0.8 999622
06:00+2wnw6127183 1.8 1000598
09:00+2wnw497964 1.1 1001360
12:00+4nw597572 2.3 1003977
15:00+5wnw812690 0.4 10031219
18:00+5wnw9147213 0.4 1005956
21:00+6nw7128181 0.4 1007682